Regional Weather Roundup
Issued by NWS

Home | Current Version | Previous Version | Graphics & Text | Print | Product List | Glossary On
Versions: 1 2 3 4 5 6 7 8 9 10 11 12 13 14 15 16 17 18 19 20 21 22 23 24 25 26 27 28 29 30 31 32 33 34 35 36 37 38 39 40 41 42 43 44 45 46 47 48 49 50
000
ASUS43 KFSD 251902
RWRSD

WEATHER ROUNDUP FOR SOUTH DAKOTA
NATIONAL WEATHER SERVICE SIOUX FALLS SD
100 PM CST TUE NOV 25 2014

NOTE: "FAIR" INDICATES FEW OR NO CLOUDS BELOW 12,000 FEET WITH NO
SIGNIFICANT WEATHER AND/OR OBSTRUCTIONS TO VISIBILITY.


SDZ001>005-009-010-012>017-252000-
NORTHWEST AND NORTH CENTRAL SOUTH DAKOTA

CITY           SKY/WX    TMP DP  RH WIND       PRES   REMARKS
BUFFALO          N/A     36  31  82 W23       29.66S
FAITH            N/A     35  28  75 SW20      29.73F WCI  24
MOBRIDGE       CLOUDY    35  29  78 S12       29.75F WCI  27
$$

SDZ012>016-024>037-041>051-057-063-072>074-252000-
SOUTHWEST AND SOUTH CENTRAL SOUTH DAKOTA

CITY           SKY/WX    TMP DP  RH WIND       PRES   REMARKS
RAPID CTY ARPT CLOUDY    34  30  85 N9        29.76F WCI  27
PIERRE         CLOUDY    35  26  69 SE9       29.80F WCI  28
CUSTER         CLOUDY    31  23  72 W8G20     29.73F WCI  23
PHILIP         CLOUDY   N/A N/A N/A SW8       29.77F
PINE RIDGE     CLOUDY    37  22  54 W10       29.79F
WINNER         CLOUDY    39  25  57 S14       29.81F
$$

SDZ004>011-016>023-039-040-252000-
NORTHEAST SOUTH DAKOTA

CITY           SKY/WX    TMP DP  RH WIND       PRES   REMARKS
ABERDEEN       CLOUDY    31  25  78 SE12      29.87F WCI  22
WATERTOWN      CLOUDY    28  21  75 S9        29.89F WCI  19
SISSETON         N/A     30  22  72 S10       29.91F WCI  21
$$

SDZ017-020-022-023-036>040-048>070-252000-
SOUTHEAST SOUTH DAKOTA

CITY           SKY/WX    TMP DP  RH WIND       PRES   REMARKS
SIOUX FALLS    CLOUDY    35  18  49 S12       29.95F WCI  27
HURON          PTSUNNY   34  25  69 S10       29.89F WCI  26
CHAMBERLAIN    CLOUDY    38  26  63 SE12      29.83F
MITCHELL       PTSUNNY   37  26  64 S9        29.91F
YANKTON        MOSUNNY   39  27  60 S9        29.94F
$$

ABBREVIATIONS USED IN REMARKS
   TC - TEMPERATURE IN CELSIUS
  WCI - WIND CHILL INDEX
   HX - HEAT INDEX
  VSB - VISIBILITY




USA.gov is the U.S. government's official web portal to all federal, state and local government web resources and services.